Regional Weather Roundup
Issued by NWS

Home | Current Version | Previous Version | Graphics & Text | Print | Product List | Glossary On
Versions: 1 2 3 4 5 6 7 8 9 10 11 12 13 14 15 16 17 18 19 20 21 22 23 24 25 26 27 28 29 30 31 32 33 34 35 36 37 38 39 40 41 42 43 44 45 46 47 48 49 50
138
ASUS45 KCYS 211310
RWRWY

WYOMING REGIONAL WEATHER ROUNDUP
NATIONAL WEATHER SERVICE CHEYENNE WY
700 AM MDT MON AUG 21 2017

NOTE:  "FAIR" INDICATES FEW OR NO CLOUDS BELOW 12,000 FEET
WITH NO SIGNIFICANT WEATHER AND/OR OBSTRUCTIONS TO VISIBILITY.

WYZ001-211400-
YELLOWSTONE NATIONAL PARK

CITY           SKY/WX    TMP DP  RH WIND       PRES   REMARKS
LK YELLOWSTONE   N/A     36  35  96 CALM      30.35S
W YELLOWSTONE  NOT AVBL

$$
WYZ002>013-054>058-071-098>099-211400-
NORTHERN WYOMING

CITY           SKY/WX    TMP DP  RH WIND       PRES   REMARKS
JACKSON        FAIR      37  28  70 N6        30.28R WCI  32
CODY           FAIR      56  36  47 CALM      30.21R
GREYBULL       FAIR      54  38  54 SE6       30.12R
WORLAND        FAIR      50  38  63 S5        30.13R
SHERIDAN       FAIR      53  40  61 S3        30.14R
BUFFALO        FAIR      57  35  43 N6        30.18R
GILLETTE       FAIR      56  39  53 CALM      30.12R
HULETT         FAIR      63  48  59 N3        30.12R
NEWCASTLE      FAIR      63  54  72 NW6       30.07R

$$
WYZ014>020-022>026-101>103-211400-
CENTRAL WYOMING

CITY           SKY/WX    TMP DP  RH WIND       PRES   REMARKS
BIG PINEY      FAIR      39  30  70 CALM      30.30R
PINEDALE       FAIR      37  32  81 NW8       30.31R WCI  31
DUBOIS         FAIR      43  27  52 NW9       30.29R
LANDER           N/A    N/A N/A N/A MISG      30.19R
RIVERTON       FAIR      55  35  47 NW6       30.20R
CASPER         FAIR      50  40  68 W3        30.19R
DOUGLAS        FAIR      57  40  52 NW8       30.16R

$$
WYZ021-027>030-104>119-211400-
SOUTHERN WYOMING

CITY           SKY/WX    TMP DP  RH WIND       PRES   REMARKS
EVANSTON       FAIR      55  33  43 SE5       30.29R
KEMMERER         N/A     48  32  53 N13       30.30S
FORT BRIDGER   FAIR      53  33  46 NW9       30.30R
ROCK SPRINGS   FAIR      55  36  48 S5        30.26R
RAWLINS        FAIR      48  36  63 CALM      30.27R
SARATOGA       FAIR      48  37  66 S12       30.29S
LARAMIE        FAIR      48  38  68 SE5       30.27R
CHEYENNE       FAIR      61  39  44 NW8       30.16R
TORRINGTON     MOCLDY    58  58 100 W5        30.05R FOG
PINE BLUFFS    FAIR      52  50  93 W3        30.12R

$$




USA.gov is the U.S. government's official web portal to all federal, state and local government web resources and services.